[[{"header":{"parameterUnit":"m.s-1","parameterCategory":2,"la1":30.2991,"la2":30.254,"lo1":-89.0895,"lo2":-89.0444,"dy":0.0017,"dx":0.0017,"nx":28,"ny":28,"refTime":"2025-06-15T21:00:00:Z","depth":"0","parameterNumber":2,"parameterNumberName":"U-component_of_CURRENTS"},"data":[0,0,0,0,0,0,0,0,0,0,0,0,0,0,0,0,0,0,0,0,0,0,0,0,0,0,0,0,0,0,0,0,0,0,0,0,0,0,0,0,0,0,0,0,0,0,0,0,0,0,0,0,0,0,0,0,0,0,0.3469,0.3469,0,0.3451,0.3451,0.3451,0.3431,0.3431,0.3431,0.3431,0.3421,0.3421,0.3421,0,0,0,0,0,0,0,0,0,0,0,0,0,0.3579,0.3576,0.3469,0.3469,0.3469,0.3451,0.3451,0.3451,0.3431,0.3431,0.3431,0.3431,0.3421,0.3421,0.3421,0,0,0,0,0,0,0,0,0,0,0,0,0,0.3542,0.3576,0.3469,0.3458,0.3457,0.3451,0.3451,0.3451,0.3431,0.3431,0.3431,0.3431,0.3421,0.3421,0.3421,0.3427,0,0,0.3421,0.3421,0,0,0,0,0,0,0,0,0.3544,0.3538,0.346,0.3459,0.3457,0.3444,0.3486,0.3443,0.3432,0.344,0.3431,0.343,0.343,0.3429,0.3426,0.3426,0.3426,0.3421,0.3421,0.3421,0.3421,0,0,0,0,0,0,0,0.3547,0.3539,0.3462,0.346,0.3458,0.3485,0.3479,0.3478,0.3437,0.344,0.3438,0.3437,0.343,0.3426,0.3425,0.3426,0.3421,0.3421,0.3421,0.3421,0.3485,0.3487,0,0,0,0,0,0,0.3545,0.3541,0.3462,0.3461,0.3502,0.3483,0.3476,0.3448,0.3437,0.3435,0.3438,0.3437,0.3426,0.3425,0.3425,0.3466,0.3421,0.3421,0.3421,0.3484,0.3486,0.3488,0,0,0,0,0,0,0.3547,0.3537,0.3463,0.3503,0.3496,0.3481,0.345,0.3448,0.3448,0.3435,0.3433,0.3441,0.3426,0.3425,0.3433,0.3465,0.3421,0.342,0.3481,0.3484,0.3487,0.3527,0,0,0,0,0,0,0.355,0.3537,0.3528,0.3502,0.3493,0.3469,0.3451,0.3448,0.3448,0.3446,0.3437,0.3436,0.3425,0.3433,0.3433,0.3464,0.342,0.3479,0.3483,0.3486,0.3523,0.3531,0.3537,0,0,0,0,0,0.3554,0.3539,0.3526,0.3518,0.3475,0.3469,0.3468,0.3457,0.3448,0.3454,0.3448,0.3436,0.3455,0.3434,0.3433,0.3465,0.3478,0.3482,0.3486,0.352,0.3529,0.3537,0,0,0,0,0,0,0.359,0.3535,0.3521,0.3492,0.3486,0.3466,0.3471,0.3463,0.3461,0.3461,0.3445,0.3444,0.3466,0.3462,0.344,0.3497,0.347,0.3474,0.3497,0.3505,0.3512,0.3548,0.342,0,0,0,0,0,0.359,0.3565,0.3529,0.3517,0.3505,0.349,0.3489,0.3482,0.3474,0.3473,0.3464,0.3468,0.3482,0.3489,0.3494,0.3518,0.3573,0.3545,0.3551,0.3557,0.3588,0.3707,0.3728,0.3501,0.3501,0.3501,0,0,0.3613,0.3575,0.3568,0.3525,0.3514,0.3505,0.3488,0.3489,0.3495,0.3473,0.3479,0.3485,0.3493,0.352,0.3532,0.3521,0.3648,0.3562,0.3566,0.3595,0.3714,0.3736,0.3756,0.3503,0.3503,0.3502,0,0,0.3634,0.3598,0.3579,0.3564,0.3543,0.3533,0.3534,0.3513,0.3515,0.352,0.3519,0.3553,0.3545,0.3579,0.359,0.3643,0.3676,0.3638,0.3704,0.3818,0.3839,0.3857,0.3946,0.3972,0.3646,0.3646,0.3646,0,0.3659,0.3615,0.3584,0.3559,0.3554,0.3543,0.3536,0.354,0.3533,0.3561,0.3528,0.3592,0.3583,0.3665,0.3676,0.3661,0.3724,0.3665,0.3829,0.3849,0.3867,0.3954,0.3982,0.3649,0.3648,0.3648,0.3648,0,0.3662,0.3628,0.362,0.3576,0.3577,0.3572,0.3564,0.3582,0.358,0.3599,0.3667,0.3673,0.3725,0.3725,0.3706,0.3838,0.3839,0.3819,0.3809,0.3893,0.3978,0.4007,0.3652,0.3651,0.3651,0.365,0,0,0.3683,0.3629,0.3623,0.3604,0.3579,0.3579,0.3606,0.3638,0.3692,0.3702,0.3788,0.381,0.3843,0.3862,0.3867,0.3958,0.4115,0.3944,0.3949,0.4034,0.4369,0.4263,0.4284,0.4129,0.4135,0.4139,0.4373,0,0.3684,0.3644,0.3626,0.3615,0.3586,0.3601,0.3635,0.368,0.3723,0.3809,0.3867,0.3944,0.3887,0.3935,0.4014,0.4101,0.4196,0.4054,0.4275,0.4282,0.418,0.4316,0.4096,0.4277,0.4401,0.4406,0.441,0,0.3667,0.3637,0.3616,0.3615,0.3612,0.3623,0.3699,0.3735,0.3863,0.3911,0.4015,0.407,0.4209,0.4144,0.4355,0.427,0.4329,0.4385,0.4395,0.4309,0.4231,0.4217,0.4326,0.4212,0.4454,0.4451,0.4448,0,0.3661,0.3629,0.3615,0.3606,0.361,0.3635,0.3668,0.3771,0.3845,0.4007,0.4105,0.4248,0.4344,0.4462,0.4539,0.4481,0.4772,0.4704,0.467,0.4663,0.4527,0.4498,0.4555,0.4877,0.4876,0.4876,0.4875,0,0.3637,0.3614,0.3609,0.3592,0.3619,0.3634,0.3724,0.3783,0.393,0.4058,0.4165,0.4302,0.4434,0.459,0.4641,0.4752,0.4859,0.4731,0.4739,0.453,0.4499,0.4431,0.438,0.4885,0.4883,0.4881,0.4879,0,0.3595,0.3592,0.3569,0.3586,0.3601,0.362,0.3733,0.3813,0.3952,0.4133,0.4204,0.44,0.4592,0.4709,0.4914,0.4876,0.4859,0.5001,0.4728,0.4697,0.4498,0.4456,0.4402,0.4277,0.5018,0.5017,0.5017,0,0.3552,0.3535,0.3561,0.357,0.3567,0.3619,0.3672,0.3802,0.39,0.4188,0.4275,0.4519,0.4654,0.4896,0.4898,0.4999,0.4856,0.4836,0.4668,0.4503,0.4465,0.428,0.4165,0.4514,0.451,0.4506,0.4503,0,0.3466,0.3492,0.3489,0.3527,0.356,0.3612,0.3697,0.3777,0.3966,0.4119,0.4318,0.4462,0.4675,0.4665,0.4774,0.4792,0.4575,0.4754,0.4679,0.4169,0.3884,0.3758,0.4335,0.4467,0.4471,0.4473,0.4475,0.4477,0.3405,0.3404,0.3439,0.3461,0.3513,0.3564,0.3576,0.3703,0.3832,0.3995,0.4208,0.4304,0.4421,0.4521,0.452,0.4347,0.4348,0.4199,0.4198,0.4054,0.3808,0.4291,0.4354,0.4357,0.4359,0.4362,0.4363,0,0.3301,0.3333,0.337,0.3395,0.3413,0.3473,0.3557,0.3546,0.3625,0.3794,0.3912,0.3967,0.3987,0.4049,0.3973,0.3813,0.3631,0.372,0.3427,0.3371,0.3904,0.3752,0.3569,0.3569,0.3569,0.3569,0.3569,0.3569,0.3249,0.3245,0.3275,0.3266,0.329,0.3254,0.3258,0.3268,0.333,0.3339,0.3335,0.3428,0.3623,0.3687,0.3519,0.3426,0.3182,0.3021,0.3069,0.3458,0.3501,0.3542,0.3387,0.3131,0.313,0.2345,0.234,0.2335]},{"header":{"parameterUnit":"m.s-1","parameterCategory":2,"la1":30.2991,"la2":30.254,"lo1":-89.0895,"lo2":-89.0444,"dy":0.0017,"dx":0.0017,"nx":28,"ny":28,"refTime":"2025-06-15T21:00:00:Z","depth":"0","parameterNumber":3,"parameterNumberName":"V-component_of_CURRENTS"},"data":[0,0,0,0,0,0,0,0,0,0,0,0,0,0,0,0,0,0,0,0,0,0,0,0,0,0,0,0,0,0,0,0,0,0,0,0,0,0,0,0,0,0,0,0,0,0,0,0,0,0,0,0,0,0,0,0,0,0,0.0183,0.0182,0,0.0128,0.0127,0.0126,0.0079,0.0079,0.0078,0.0078,-0.0023,-0.0025,-0.0027,0,0,0,0,0,0,0,0,0,0,0,0,0,0.016,0.0161,0.0183,0.0182,0.0182,0.0128,0.0127,0.0126,0.0079,0.0079,0.0078,0.0078,-0.0022,-0.0025,-0.0028,0,0,0,0,0,0,0,0,0,0,0,0,0,0.0142,0.0162,0.0183,0.0154,0.0151,0.0128,0.0127,0.0126,0.0079,0.0079,0.0078,0.0078,-0.0021,-0.0024,-0.0028,-0.0042,0,0,-0.0039,-0.0041,0,0,0,0,0,0,0,0,0.0143,0.0142,0.0159,0.0156,0.0153,0.0113,0.0083,0.0068,0.0079,0.0103,0.0078,0.0078,0.0021,0.0013,0.0001,-0.0047,-0.0051,-0.0039,-0.0042,-0.0043,-0.0044,0,0,0,0,0,0,0,0.0145,0.0144,0.0158,0.0158,0.0155,0.0115,0.0112,0.0079,0.0062,0.0101,0.0098,0.0097,0.0018,0.0004,-0.0002,-0.0053,-0.0039,-0.0043,-0.0045,-0.0046,-0.0113,-0.0113,0,0,0,0,0,0,0.0163,0.0146,0.016,0.0157,0.015,0.0116,0.0113,0.0123,0.0063,0.0055,0.0098,0.0095,0.0011,0.0002,-0.0006,-0.0008,-0.0043,-0.0047,-0.0049,-0.0113,-0.0113,-0.0112,0,0,0,0,0,0,0.0162,0.0165,0.0162,0.0151,0.0149,0.0118,0.0129,0.0123,0.0112,0.0061,0.0051,0.0095,0.001,-0.0001,-0.0028,-0.0013,-0.0048,-0.0052,-0.0114,-0.0113,-0.0113,-0.0024,0,0,0,0,0,0,0.0162,0.0165,0.0174,0.0153,0.015,0.0159,0.013,0.0122,0.0113,0.011,0.0056,0.0046,0.0009,-0.0022,-0.0031,-0.0019,-0.0054,-0.0114,-0.0114,-0.0113,-0.0028,-0.0021,-0.0015,0,0,0,0,0,0.0162,0.0183,0.0175,0.0177,0.0166,0.016,0.0155,0.0128,0.0114,0.0116,0.0079,0.0048,-0.0024,-0.0024,-0.0036,-0.0024,-0.0115,-0.0114,-0.0113,-0.003,-0.0022,-0.0015,0,0,0,0,0,0,0.0174,0.018,0.0171,0.0191,0.0181,0.0154,0.0153,0.0136,0.0108,0.0104,0.0052,0.004,0.0019,-0.0014,-0.0014,-0.0041,-0.0074,-0.0075,-0.0008,-0.0,0.0006,0.0034,-0.0057,0,0,0,0,0,0.0184,0.0201,0.0194,0.0207,0.0207,0.018,0.0173,0.0161,0.0136,0.0123,0.0086,0.0047,0.0014,-0.0001,-0.0038,-0.005,-0.006,-0.0051,-0.0044,-0.0038,-0.0024,-0.0024,-0.0015,-0.0109,-0.0109,-0.0109,0,0,0.019,0.0196,0.0204,0.021,0.0198,0.0211,0.0175,0.0176,0.0183,0.0117,0.0109,0.0066,0.0014,-0.0001,-0.0013,-0.0026,-0.0015,-0.0037,-0.0031,-0.002,-0.0022,-0.0013,-0.0004,-0.0109,-0.0109,-0.0109,0,0,0.0219,0.022,0.0246,0.0247,0.0246,0.0233,0.024,0.0221,0.0209,0.0196,0.0151,0.0124,0.0071,0.0045,0.0022,0.0044,0.0017,0.0027,0.0087,0.0087,0.0095,0.0102,0.0117,0.0125,0.0035,0.0035,0.0035,0,0.0227,0.0262,0.0249,0.0276,0.0284,0.0251,0.028,0.0264,0.0238,0.0239,0.0206,0.0149,0.0096,0.0093,0.0091,0.006,0.0061,0.0064,0.0098,0.0105,0.0111,0.0124,0.0131,0.0039,0.0039,0.0038,0.0038,0,0.0279,0.0304,0.0319,0.0345,0.0349,0.0368,0.0355,0.0351,0.0328,0.0316,0.0304,0.0239,0.0208,0.0184,0.0137,0.0154,0.0143,0.0105,0.0085,0.0126,0.0136,0.0143,0.0045,0.0044,0.0043,0.0041,0,0,0.0314,0.0351,0.0357,0.0384,0.0393,0.0407,0.0417,0.0428,0.0453,0.041,0.0444,0.0365,0.0335,0.0307,0.0253,0.0246,0.0274,0.0197,0.0195,0.0226,0.0293,0.0256,0.0259,0.0246,0.0247,0.0248,0.029,0,0.0361,0.0427,0.043,0.0487,0.0522,0.0502,0.0522,0.0525,0.0513,0.0536,0.0482,0.0487,0.0382,0.0381,0.035,0.0301,0.0292,0.0267,0.0237,0.0237,0.0209,0.0265,0.0257,0.0291,0.0296,0.0296,0.0297,0,0.042,0.0458,0.0523,0.0574,0.0588,0.0611,0.0648,0.0668,0.068,0.0676,0.0664,0.0629,0.0611,0.0519,0.0456,0.0448,0.0373,0.0329,0.0329,0.0269,0.0211,0.0246,0.0301,0.0141,0.0306,0.0306,0.0305,0,0.0465,0.0527,0.0583,0.06,0.0646,0.0668,0.0693,0.0711,0.0759,0.0785,0.0835,0.078,0.0784,0.069,0.0563,0.0522,0.0509,0.0439,0.034,0.0337,0.0312,0.0304,0.0219,0.0398,0.0398,0.0398,0.0398,0,0.0525,0.0571,0.0609,0.0643,0.072,0.073,0.0817,0.0826,0.0887,0.099,0.0919,0.0994,0.0826,0.0788,0.0646,0.0527,0.0568,0.0373,0.035,0.0342,0.0337,0.0177,0.0076,0.0399,0.0399,0.0399,0.0398,0,0.0571,0.0592,0.0666,0.0721,0.0746,0.0805,0.0909,0.0982,0.1021,0.1159,0.1188,0.1174,0.1133,0.0964,0.0831,0.0651,0.0441,0.0474,0.048,0.0456,0.0185,0.0089,-0.002,-0.0088,0.0382,0.0381,0.0381,0,0.0602,0.0643,0.0727,0.0783,0.0811,0.0903,0.098,0.1041,0.1139,0.1292,0.1378,0.1377,0.1412,0.1195,0.0889,0.0655,0.0467,0.0455,0.035,0.0189,0.0067,-0.001,-0.0064,0.0363,0.0362,0.0362,0.0361,0,0.0664,0.0688,0.0749,0.0864,0.0949,0.1065,0.1182,0.1281,0.1397,0.1538,0.1714,0.1768,0.1552,0.1308,0.0932,0.0743,0.033,0.0435,0.0271,0.0052,-0.0036,-0.0118,0.0322,0.0357,0.0357,0.0357,0.0358,0.0358,0.0708,0.0764,0.0846,0.0959,0.1066,0.1217,0.1336,0.1496,0.1695,0.1927,0.1952,0.2073,0.1672,0.1171,0.0873,0.0304,0.0303,0.0118,0.0025,-0.003,-0.0131,0.0302,0.0295,0.0295,0.0295,0.0295,0.0296,0,0.0769,0.0836,0.0943,0.1081,0.1214,0.1259,0.147,0.1619,0.1884,0.2094,0.226,0.2138,0.1648,0.112,0.035,-0.0041,-0.0183,-0.0242,-0.0354,-0.0385,0.0013,-0.0026,-0.0106,-0.0106,-0.0105,-0.0105,-0.0105,-0.0105,0.0805,0.091,0.0966,0.118,0.1289,0.1486,0.1617,0.1853,0.2037,0.2307,0.2392,0.2419,0.2019,0.0667,-0.0211,-0.0401,-0.0665,-0.0734,-0.0841,-0.0589,-0.0562,-0.0537,-0.0598,-0.0796,-0.0797,-0.1193,-0.1197,-0.12]}],[{"header":{"parameterUnit":"m.s-1","parameterCategory":2,"la1":30.2991,"la2":30.254,"lo1":-89.0895,"lo2":-89.0444,"dy":0.0017,"dx":0.0017,"nx":28,"ny":28,"refTime":"2025-06-15T21:00:00:Z","depth":"2","parameterNumber":2,"parameterNumberName":"U-component_of_CURRENTS"},"data":[0,0,0,0,0,0,0,0,0,0,0,0,0,0,0,0,0,0,0,0,0,0,0,0,0,0,0,0,0,0,0,0,0,0,0,0,0,0,0,0,0,0,0,0,0,0,0,0,0,0,0,0,0,0,0,0,0,0,0.2786,0.2786,0,0.2807,0.2807,0.2807,0.2809,0.2809,0.2809,0.2809,0.2813,0.2813,0.2813,0,0,0,0,0,0,0,0,0,0,0,0,0,0.2725,0.2726,0.2786,0.2786,0.2787,0.2807,0.2807,0.2807,0.2809,0.2809,0.2809,0.2809,0.2813,0.2813,0.2813,0,0,0,0,0,0,0,0,0,0,0,0,0,0.2747,0.2726,0.2786,0.2792,0.2792,0.2807,0.2807,0.2807,0.2809,0.2809,0.2809,0.2809,0.2812,0.2813,0.2813,0.2815,0,0,0.2813,0.2814,0,0,0,0,0,0,0,0,0.2746,0.2749,0.279,0.2791,0.2792,0.2807,0.2787,0.281,0.2809,0.28,0.2809,0.2809,0.2811,0.2811,0.2812,0.2815,0.2815,0.2813,0.2814,0.2814,0.2814,0,0,0,0,0,0,0,0.2744,0.2748,0.2792,0.2791,0.2792,0.2786,0.2789,0.2791,0.2803,0.2801,0.2802,0.2808,0.2811,0.2812,0.2812,0.2815,0.2813,0.2814,0.2814,0.2814,0.2882,0.2884,0,0,0,0,0,0,0.2748,0.2747,0.2791,0.2793,0.2771,0.2787,0.2791,0.2801,0.2804,0.2805,0.2808,0.2808,0.2812,0.2812,0.2812,0.2858,0.2814,0.2814,0.2814,0.288,0.2882,0.2884,0,0,0,0,0,0,0.2746,0.2752,0.279,0.2772,0.2776,0.2789,0.28,0.2801,0.2815,0.281,0.281,0.2822,0.2812,0.2812,0.2832,0.2856,0.2814,0.2814,0.2878,0.2881,0.2883,0.2921,0,0,0,0,0,0,0.2744,0.2751,0.2764,0.2772,0.2778,0.2811,0.28,0.2802,0.282,0.282,0.2822,0.2822,0.2812,0.2832,0.2832,0.2856,0.2814,0.2876,0.2879,0.2882,0.2918,0.2925,0.2931,0,0,0,0,0,0.2742,0.2758,0.2765,0.2771,0.2794,0.2812,0.2815,0.2821,0.2821,0.2832,0.2837,0.2822,0.2853,0.2833,0.2833,0.2857,0.2875,0.2879,0.2882,0.2915,0.2923,0.293,0,0,0,0,0,0,0.2737,0.2761,0.2768,0.279,0.2807,0.2814,0.2827,0.2831,0.2843,0.2848,0.2837,0.2837,0.2867,0.2861,0.284,0.289,0.2864,0.2868,0.2889,0.2897,0.2903,0.2924,0.2814,0,0,0,0,0,0.2744,0.2765,0.2782,0.2803,0.2813,0.2823,0.2833,0.2841,0.2851,0.2857,0.2858,0.2867,0.2881,0.2887,0.2897,0.2918,0.2953,0.2938,0.2945,0.295,0.2969,0.306,0.3077,0.2897,0.2897,0.2897,0,0,0.2744,0.2765,0.2774,0.2804,0.2817,0.2835,0.2829,0.2854,0.287,0.2855,0.288,0.2889,0.2894,0.2921,0.2934,0.2918,0.3017,0.2955,0.2959,0.2976,0.3066,0.3084,0.31,0.2899,0.2899,0.2898,0,0,0.2756,0.2779,0.2798,0.2816,0.2846,0.2855,0.2867,0.2885,0.2896,0.2921,0.2921,0.2951,0.2959,0.2976,0.2982,0.3033,0.305,0.3034,0.3079,0.3167,0.3183,0.3197,0.3252,0.3271,0.3035,0.3035,0.3035,0,0.2761,0.2786,0.2806,0.283,0.2847,0.2866,0.2886,0.2902,0.2925,0.2949,0.2936,0.2998,0.2989,0.3045,0.3056,0.3048,0.3095,0.3043,0.3176,0.3191,0.3205,0.3259,0.3279,0.3037,0.3037,0.3037,0.3037,0,0.2778,0.2806,0.282,0.2858,0.2878,0.2903,0.2926,0.2953,0.2969,0.2993,0.3058,0.3066,0.311,0.3108,0.3089,0.3185,0.3184,0.3175,0.3155,0.3226,0.3277,0.3298,0.3041,0.304,0.3039,0.3038,0,0,0.2768,0.2824,0.2827,0.2849,0.2897,0.2911,0.2953,0.2999,0.3047,0.3078,0.3149,0.317,0.32,0.3212,0.3213,0.3274,0.3389,0.3266,0.327,0.3319,0.3579,0.3462,0.3473,0.3413,0.3417,0.342,0.3569,0,0.2777,0.2819,0.2847,0.2886,0.2907,0.2946,0.2984,0.3033,0.3086,0.3161,0.3205,0.3274,0.3234,0.3274,0.333,0.3384,0.3449,0.3349,0.3506,0.351,0.3396,0.3495,0.3208,0.3308,0.359,0.3593,0.3596,0,0.2774,0.2808,0.2844,0.2905,0.2919,0.2947,0.3029,0.3072,0.3182,0.3234,0.3326,0.3376,0.3472,0.3432,0.3577,0.3522,0.3558,0.359,0.3597,0.3493,0.3432,0.3287,0.3335,0.363,0.3628,0.3625,0.3623,0,0.2735,0.2799,0.2828,0.2847,0.2921,0.2951,0.2996,0.3095,0.3165,0.3308,0.3395,0.3506,0.3586,0.3667,0.3711,0.3673,0.3869,0.3825,0.3756,0.3748,0.3536,0.3501,0.3947,0.3947,0.3947,0.3946,0.3946,0,0.2722,0.2743,0.2814,0.2828,0.2877,0.2936,0.3021,0.3087,0.3229,0.3331,0.344,0.3544,0.3657,0.3764,0.3786,0.3834,0.3936,0.3794,0.3795,0.3537,0.3502,0.3802,0.3783,0.3952,0.3951,0.395,0.3949,0,0.2665,0.2713,0.2749,0.2829,0.2858,0.289,0.3023,0.3088,0.3238,0.3384,0.3445,0.3621,0.3748,0.3835,0.397,0.3925,0.3985,0.3972,0.3641,0.3599,0.3786,0.3768,0.3931,0.3928,0.3926,0.3924,0.3923,0,0.2636,0.2652,0.2732,0.2759,0.2795,0.287,0.2919,0.3066,0.3157,0.3411,0.3472,0.3663,0.3741,0.389,0.3872,0.3913,0.3975,0.3649,0.3513,0.3809,0.3794,0.3778,0.3763,0.325,0.3243,0.3238,0.3233,0,0.2584,0.2614,0.2642,0.2702,0.2748,0.281,0.2906,0.2974,0.3157,0.3276,0.3423,0.3516,0.3672,0.3574,0.3634,0.3607,0.3614,0.3533,0.3982,0.328,0.3174,0.3156,0.3163,0.3183,0.3188,0.3192,0.3195,0.3197,0.2534,0.2538,0.2583,0.2629,0.268,0.272,0.2727,0.2836,0.2927,0.3058,0.3234,0.3265,0.3344,0.327,0.3191,0.3128,0.337,0.3213,0.3228,0.325,0.3126,0.302,0.2976,0.298,0.2983,0.2986,0.2988,0,0.2461,0.248,0.2515,0.2545,0.2541,0.2624,0.2688,0.2658,0.2677,0.282,0.2897,0.2709,0.268,0.2755,0.2595,0.2601,0.2552,0.2483,0.2398,0.2452,0.25,0.2333,0.1976,0.1972,0.1969,0.1966,0,0,0.2423,0.2408,0.2422,0.2386,0.2416,0.2379,0.2378,0.234,0.2387,0.2346,0.2346,0.2561,0.2686,0.2293,0.2258,0.2088,0.224,0.2,0.2824,0.278,0.2822,0.2947,0.2756,0,0,0,0,0]},{"header":{"parameterUnit":"m.s-1","parameterCategory":2,"la1":30.2991,"la2":30.254,"lo1":-89.0895,"lo2":-89.0444,"dy":0.0017,"dx":0.0017,"nx":28,"ny":28,"refTime":"2025-06-15T21:00:00:Z","depth":"2","parameterNumber":3,"parameterNumberName":"V-component_of_CURRENTS"},"data":[0,0,0,0,0,0,0,0,0,0,0,0,0,0,0,0,0,0,0,0,0,0,0,0,0,0,0,0,0,0,0,0,0,0,0,0,0,0,0,0,0,0,0,0,0,0,0,0,0,0,0,0,0,0,0,0,0,0,0.014,0.0139,0,0.0084,0.0084,0.0083,0.004,0.004,0.0039,0.0039,-0.0051,-0.0053,-0.0055,0,0,0,0,0,0,0,0,0,0,0,0,0,0.0134,0.0135,0.014,0.0139,0.0139,0.0085,0.0084,0.0083,0.004,0.004,0.0039,0.0039,-0.005,-0.0053,-0.0055,0,0,0,0,0,0,0,0,0,0,0,0,0,0.0112,0.0135,0.014,0.0113,0.011,0.0085,0.0084,0.0082,0.004,0.004,0.0039,0.0039,-0.0049,-0.0052,-0.0056,-0.007,0,0,-0.0066,-0.0067,0,0,0,0,0,0,0,0,0.0113,0.0112,0.0117,0.0115,0.0111,0.0071,0.0049,0.003,0.004,0.0064,0.0039,0.0039,-0.0012,-0.0018,-0.0031,-0.0075,-0.0078,-0.0066,-0.0068,-0.007,-0.0071,0,0,0,0,0,0,0,0.0115,0.0113,0.0116,0.0117,0.0113,0.0078,0.0075,0.0045,0.0026,0.0062,0.0059,0.0057,-0.0014,-0.0027,-0.0033,-0.008,-0.0066,-0.0069,-0.0071,-0.0072,-0.0137,-0.0137,0,0,0,0,0,0,0.0131,0.0115,0.0117,0.0114,0.0114,0.0079,0.0075,0.0082,0.0027,0.0019,0.0057,0.0055,-0.0021,-0.0029,-0.0036,-0.0042,-0.007,-0.0073,-0.0075,-0.0137,-0.0137,-0.0137,0,0,0,0,0,0,0.0131,0.0132,0.012,0.0114,0.0111,0.008,0.0088,0.0081,0.0071,0.0024,0.0015,0.0054,-0.0022,-0.0032,-0.0057,-0.0047,-0.0074,-0.0077,-0.0138,-0.0137,-0.0137,-0.0063,0,0,0,0,0,0,0.0131,0.0132,0.0139,0.0116,0.0112,0.0114,0.0088,0.0081,0.0071,0.0068,0.0019,0.001,-0.0023,-0.0052,-0.006,-0.0052,-0.008,-0.0138,-0.0137,-0.0137,-0.0066,-0.006,-0.0056,0,0,0,0,0,0.0131,0.0147,0.014,0.014,0.0124,0.0114,0.0109,0.0083,0.0071,0.0071,0.0039,0.0011,-0.0055,-0.0054,-0.0064,-0.0056,-0.0138,-0.0137,-0.0137,-0.0068,-0.0062,-0.0056,0,0,0,0,0,0,0.0145,0.0144,0.0135,0.0149,0.0136,0.0108,0.0105,0.009,0.0064,0.0061,0.0014,0.0003,-0.0016,-0.0047,-0.0045,-0.0074,-0.0101,-0.0102,-0.0045,-0.0039,-0.0034,-0.0011,-0.0083,0,0,0,0,0,0.0153,0.0165,0.0153,0.0162,0.016,0.0134,0.0125,0.0113,0.0089,0.0077,0.0044,0.0008,-0.0022,-0.0037,-0.007,-0.0084,-0.0105,-0.0087,-0.0081,-0.0077,-0.0065,-0.0082,-0.0077,-0.0134,-0.0134,-0.0135,0,0,0.0159,0.016,0.0165,0.0165,0.0152,0.0159,0.0128,0.0125,0.0128,0.0071,0.0062,0.0024,-0.0023,-0.0039,-0.0051,-0.0062,-0.0072,-0.0076,-0.0071,-0.0063,-0.0081,-0.0075,-0.007,-0.0134,-0.0134,-0.0134,0,0,0.0181,0.0181,0.0199,0.0197,0.0191,0.0178,0.0183,0.0163,0.0151,0.0137,0.0098,0.0072,0.0024,-0.0002,-0.0024,-0.0009,-0.0045,-0.0023,0.0024,0.0007,0.0012,0.0016,-0.0001,0.0,-0.0019,-0.0018,-0.0018,0,0.0187,0.0212,0.0199,0.0218,0.0223,0.0194,0.0215,0.0199,0.0172,0.017,0.0144,0.0088,0.0044,0.0031,0.0031,0.0005,-0.0011,0.0006,0.0016,0.002,0.0023,0.0003,0.0004,-0.0015,-0.0015,-0.0016,-0.0016,0,0.0225,0.0244,0.0255,0.0272,0.0274,0.0288,0.0274,0.0268,0.0248,0.0234,0.0216,0.0159,0.0128,0.0107,0.0069,0.007,0.005,0.0025,0.0006,0.0033,0.001,0.001,-0.001,-0.0011,-0.0012,-0.0013,0,0,0.025,0.0278,0.0282,0.0304,0.0309,0.0319,0.0325,0.0328,0.0346,0.0305,0.0323,0.0256,0.0229,0.0203,0.0155,0.0136,0.0133,0.0094,0.0092,0.0086,0.0099,0.006,0.0056,0.0112,0.0113,0.0113,0.0075,0,0.0284,0.0335,0.0336,0.0382,0.0411,0.0395,0.0408,0.0406,0.0393,0.0402,0.0348,0.0345,0.0265,0.026,0.0224,0.0162,0.0136,0.0146,0.0064,0.0062,0.0032,0.0056,0.0078,0.0044,0.0075,0.0075,0.0074,0,0.0327,0.0357,0.041,0.0454,0.0465,0.0483,0.0512,0.0525,0.0522,0.0516,0.0496,0.0457,0.0421,0.0355,0.0259,0.027,0.019,0.0135,0.0132,0.0072,0.0023,0.0019,0.0043,0.0074,0.0074,0.0074,0.0074,0,0.0362,0.0413,0.0459,0.0474,0.0512,0.053,0.055,0.0559,0.0599,0.0602,0.0636,0.0566,0.0558,0.0449,0.0313,0.0294,0.0213,0.017,0.0059,0.0055,0.0046,0.0041,0.0106,0.0106,0.0106,0.0106,0.0106,0,0.041,0.0448,0.0481,0.051,0.0575,0.0582,0.0655,0.0659,0.0704,0.0783,0.0707,0.0747,0.0584,0.0512,0.0365,0.0216,0.0247,0.0076,0.0046,0.007,0.0068,0.0069,0.0065,0.0104,0.0105,0.0105,0.0105,0,0.0448,0.0465,0.0527,0.0574,0.0596,0.0646,0.0739,0.0801,0.0826,0.0929,0.0945,0.0897,0.0801,0.0623,0.0456,0.03,0.0152,0.0087,0.0123,0.0098,-0.001,-0.0009,-0.0034,-0.0036,-0.0037,-0.0038,-0.0039,0,0.0472,0.0507,0.0579,0.063,0.0656,0.0737,0.0805,0.0855,0.0942,0.103,0.1095,0.1032,0.1002,0.0726,0.045,0.0193,0.0152,0.0033,-0.0013,0.0004,-0.0022,-0.002,-0.0018,0.0005,0.0004,0.0004,0.0004,0,0.0525,0.0545,0.0598,0.0702,0.0778,0.0883,0.0989,0.1078,0.1167,0.1249,0.1335,0.1316,0.1059,0.0799,0.0433,0.0249,0.007,0.0014,0.0043,0.003,0.0036,0.0011,0.0013,-0.0,0.0,0.0001,0.0001,0.0001,0.0564,0.0611,0.0682,0.0785,0.0883,0.1022,0.1128,0.1254,0.1398,0.1533,0.1499,0.1472,0.1172,0.0702,0.0383,0.004,0.0054,-0.0073,-0.007,-0.0066,-0.0061,-0.0059,-0.0112,-0.0112,-0.0112,-0.0112,-0.0112,0,0.0616,0.0674,0.0769,0.0893,0.1012,0.1059,0.125,0.136,0.1541,0.1629,0.168,0.1394,0.1101,0.0751,0.0251,-0.0051,-0.0074,-0.0158,-0.0109,-0.0103,-0.0098,-0.0093,-0.0153,-0.0154,-0.0155,-0.0156,0,0,0.0647,0.0738,0.0788,0.0979,0.1079,0.1258,0.1376,0.1528,0.163,0.171,0.1693,0.1625,0.121,0.084,0.0431,0.0145,0.0085,0.0076,0.0141,0.0254,0.0262,-0.0018,-0.0,0,0,0,0,0]}],[{"header":{"parameterUnit":"m.s-1","parameterCategory":2,"la1":30.2991,"la2":30.254,"lo1":-89.0895,"lo2":-89.0444,"dy":0.0017,"dx":0.0017,"nx":28,"ny":28,"refTime":"2025-06-15T21:00:00:Z","depth":"4","parameterNumber":2,"parameterNumberName":"U-component_of_CURRENTS"},"data":[0,0,0,0,0,0,0,0,0,0,0,0,0,0,0,0,0,0,0,0,0,0,0,0,0,0,0,0,0,0,0,0,0,0,0,0,0,0,0,0,0,0,0,0,0,0,0,0,0,0,0,0,0,0,0,0,0,0,0.1745,0.1746,0,0.1817,0.1817,0.1818,0.1874,0.1875,0.1875,0.1876,0.1943,0.1944,0.1945,0,0,0,0,0,0,0,0,0,0,0,0,0,0.1619,0.1621,0.1745,0.1746,0.1747,0.1817,0.1817,0.1818,0.1874,0.1875,0.1876,0.1877,0.1942,0.1943,0.1945,0,0,0,0,0,0,0,0,0,0,0,0,0,0.1678,0.1622,0.1745,0.1785,0.179,0.1816,0.1817,0.1818,0.1873,0.1875,0.1876,0.1877,0.1942,0.1943,0.1945,0.193,0,0,0.1949,0.195,0,0,0,0,0,0,0,0,0.1675,0.1682,0.1778,0.1783,0.1788,0.184,0.1798,0.1856,0.1873,0.1839,0.1876,0.1878,0.1909,0.1913,0.192,0.1933,0.1936,0.195,0.195,0.1951,0.1952,0,0,0,0,0,0,0,0.167,0.1679,0.177,0.1779,0.1785,0.1788,0.1798,0.1809,0.1864,0.1842,0.1847,0.1859,0.1911,0.1918,0.1922,0.1937,0.195,0.1951,0.1952,0.1952,0.2044,0.2046,0,0,0,0,0,0,0.1669,0.1676,0.1768,0.1773,0.1736,0.179,0.18,0.182,0.1864,0.1873,0.1858,0.1861,0.1915,0.192,0.1924,0.2009,0.1951,0.1953,0.1953,0.2043,0.2045,0.2046,0,0,0,0,0,0,0.1666,0.1676,0.1765,0.1727,0.174,0.1791,0.1812,0.1821,0.1868,0.1877,0.1885,0.1902,0.1916,0.1922,0.1973,0.2008,0.1953,0.1955,0.2041,0.2043,0.2045,0.2115,0,0,0,0,0,0,0.1662,0.1675,0.1704,0.1728,0.1742,0.1807,0.1812,0.1821,0.1873,0.1879,0.1916,0.1922,0.1918,0.1971,0.1975,0.201,0.1956,0.2039,0.2042,0.2045,0.211,0.2119,0.2126,0,0,0,0,0,0.1657,0.1684,0.1705,0.1717,0.1775,0.1808,0.1816,0.1853,0.1874,0.19,0.1931,0.1923,0.1992,0.1974,0.1978,0.2014,0.2038,0.2041,0.2045,0.2107,0.2117,0.2126,0,0,0,0,0,0,0.1642,0.1694,0.1716,0.1759,0.1795,0.182,0.1854,0.1875,0.1919,0.194,0.1943,0.1951,0.2009,0.2001,0.1981,0.2048,0.2013,0.2017,0.2059,0.2068,0.2076,0.2071,0.1957,0,0,0,0,0,0.1653,0.1693,0.1733,0.1771,0.1795,0.1832,0.1858,0.1885,0.1919,0.1942,0.1968,0.1994,0.2017,0.2038,0.2055,0.2092,0.2095,0.2116,0.2125,0.2131,0.213,0.2174,0.2185,0.2058,0.2058,0.2057,0,0,0.1655,0.1692,0.1714,0.1772,0.1807,0.1843,0.1852,0.1906,0.194,0.194,0.2008,0.2029,0.2035,0.208,0.2104,0.2084,0.2172,0.2136,0.2142,0.2136,0.2178,0.2191,0.2202,0.206,0.206,0.2059,0,0,0.1669,0.1719,0.1755,0.1792,0.1857,0.1878,0.1903,0.1954,0.1989,0.2045,0.2056,0.2101,0.2139,0.215,0.2157,0.2218,0.2215,0.223,0.2265,0.2309,0.232,0.2329,0.236,0.2371,0.2231,0.2231,0.2231,0,0.1676,0.1726,0.1769,0.1813,0.1849,0.1898,0.1938,0.1974,0.2036,0.2065,0.208,0.2153,0.2167,0.2208,0.2234,0.2236,0.2259,0.2229,0.232,0.2329,0.2337,0.2366,0.2378,0.2235,0.2235,0.2234,0.2234,0,0.1702,0.1761,0.1788,0.186,0.1898,0.1948,0.1998,0.205,0.2099,0.2129,0.2204,0.2228,0.227,0.2283,0.2279,0.2345,0.2342,0.2328,0.2295,0.2355,0.2381,0.2392,0.224,0.2239,0.2238,0.2237,0,0,0.1678,0.1786,0.1802,0.1845,0.1934,0.1961,0.2031,0.2094,0.2142,0.2208,0.2266,0.2316,0.2344,0.2354,0.2364,0.2397,0.2484,0.2396,0.2397,0.2425,0.2585,0.2428,0.2424,0.2496,0.2499,0.25,0.2583,0,0.1695,0.1775,0.1827,0.1904,0.1949,0.2016,0.207,0.2134,0.2195,0.2264,0.2306,0.2368,0.2366,0.2404,0.2442,0.248,0.2516,0.2462,0.2523,0.2524,0.2376,0.2432,0.2507,0.2591,0.2594,0.2596,0.2597,0,0.1699,0.176,0.1836,0.1935,0.1962,0.2013,0.2109,0.2165,0.2261,0.2316,0.2386,0.2423,0.2499,0.2483,0.258,0.2554,0.2578,0.2593,0.2597,0.2428,0.2386,0.2517,0.2617,0.2615,0.2614,0.2613,0.2611,0,0.1644,0.176,0.1822,0.1858,0.1974,0.2026,0.209,0.2186,0.2241,0.2358,0.2416,0.25,0.2569,0.2613,0.2661,0.264,0.2752,0.2721,0.2595,0.2585,0.2672,0.266,0.2778,0.2778,0.2778,0.2777,0.2777,0,0.1623,0.168,0.181,0.1844,0.192,0.201,0.2095,0.2171,0.2283,0.2341,0.2447,0.2503,0.2612,0.268,0.2696,0.2684,0.2789,0.2605,0.2595,0.27,0.2691,0.268,0.2668,0.2781,0.278,0.2779,0.2779,0,0.155,0.1639,0.1716,0.1851,0.1897,0.195,0.2092,0.214,0.2274,0.2355,0.2401,0.2548,0.2639,0.271,0.2796,0.2722,0.2725,0.2691,0.2812,0.2807,0.252,0.2511,0.2548,0.2543,0.2539,0.2536,0.2533,0,0.1518,0.1554,0.17,0.174,0.181,0.1911,0.1969,0.2117,0.2158,0.2352,0.2365,0.2521,0.2595,0.2599,0.2689,0.2708,0.2673,0.2652,0.2559,0.251,0.2498,0.2494,0.2491,0.2526,0.2525,0.2524,0.2523,0,0.1453,0.1518,0.1577,0.1662,0.1734,0.1801,0.1894,0.1916,0.2072,0.2216,0.228,0.2336,0.2437,0.2501,0.2542,0.2545,0.2649,0.2608,0.2615,0.2528,0.2484,0.2475,0.2476,0.2509,0.2511,0.2512,0.2513,0,0.1405,0.1421,0.1502,0.156,0.164,0.1659,0.173,0.1788,0.1861,0.2059,0.2083,0.2258,0.2413,0.2419,0.2454,0.245,0.2402,0.2303,0.2325,0.2342,0.2234,0.2145,0.2061,0,0,0,0,0,0.1346,0.1346,0.1391,0.1432,0.15,0.155,0.1658,0.1729,0.188,0.1867,0.1967,0.2047,0.2126,0.2224,0.2178,0.2355,0.2405,0.2289,0.2301,0.2429,0.2446,0.2336,0,0,0,0,0,0,0.1304,0.1341,0.1349,0.1314,0.1318,0.1373,0.1443,0.1548,0.1545,0.1718,0.1777,0.1912,0.2023,0.213,0.2136,0.2161,0.2122,0.2398,0.2392,0.242,0.2435,0.2448,0.2341,0,0,0,0,0]},{"header":{"parameterUnit":"m.s-1","parameterCategory":2,"la1":30.2991,"la2":30.254,"lo1":-89.0895,"lo2":-89.0444,"dy":0.0017,"dx":0.0017,"nx":28,"ny":28,"refTime":"2025-06-15T21:00:00:Z","depth":"4","parameterNumber":3,"parameterNumberName":"V-component_of_CURRENTS"},"data":[0,0,0,0,0,0,0,0,0,0,0,0,0,0,0,0,0,0,0,0,0,0,0,0,0,0,0,0,0,0,0,0,0,0,0,0,0,0,0,0,0,0,0,0,0,0,0,0,0,0,0,0,0,0,0,0,0,0,0.0125,0.0125,0,0.0084,0.0084,0.0083,0.0054,0.0054,0.0054,0.0054,-0.0011,-0.0013,-0.0015,0,0,0,0,0,0,0,0,0,0,0,0,0,0.0126,0.0126,0.0125,0.0125,0.0124,0.0084,0.0084,0.0083,0.0054,0.0054,0.0054,0.0054,-0.0011,-0.0013,-0.0015,0,0,0,0,0,0,0,0,0,0,0,0,0,0.0108,0.0126,0.0125,0.0106,0.0104,0.0084,0.0084,0.0083,0.0054,0.0054,0.0054,0.0054,-0.001,-0.0013,-0.0015,-0.0027,0,0,-0.0023,-0.0024,0,0,0,0,0,0,0,0,0.0109,0.0108,0.0109,0.0107,0.0105,0.0075,0.006,0.0045,0.0054,0.0072,0.0054,0.0054,0.0016,0.0012,0.0003,-0.0031,-0.0033,-0.0023,-0.0024,-0.0025,-0.0026,0,0,0,0,0,0,0,0.011,0.0109,0.0107,0.0109,0.0106,0.0082,0.008,0.0057,0.0044,0.007,0.0068,0.0066,0.0015,0.0005,0.0001,-0.0034,-0.0023,-0.0025,-0.0026,-0.0027,-0.0075,-0.0075,0,0,0,0,0,0,0.0121,0.0111,0.0109,0.0106,0.0108,0.0082,0.008,0.0084,0.0044,0.0039,0.0066,0.0065,0.0009,0.0004,-0.0002,-0.0006,-0.0025,-0.0028,-0.0029,-0.0075,-0.0075,-0.0075,0,0,0,0,0,0,0.0122,0.0122,0.011,0.0108,0.0105,0.0083,0.0088,0.0083,0.0077,0.0042,0.0036,0.0065,0.0009,0.0002,-0.0017,-0.001,-0.0029,-0.0031,-0.0076,-0.0075,-0.0075,-0.0024,0,0,0,0,0,0,0.0122,0.0122,0.0127,0.0109,0.0106,0.0105,0.0088,0.0083,0.0076,0.0074,0.0039,0.0032,0.0008,-0.0013,-0.0019,-0.0013,-0.0033,-0.0076,-0.0075,-0.0075,-0.0026,-0.0022,-0.0018,0,0,0,0,0,0.0122,0.0133,0.0128,0.0128,0.0114,0.0106,0.0102,0.0084,0.0076,0.0076,0.0053,0.0034,-0.0015,-0.0015,-0.0022,-0.0017,-0.0076,-0.0076,-0.0075,-0.0027,-0.0023,-0.0018,0,0,0,0,0,0,0.0133,0.013,0.0125,0.0133,0.0123,0.0101,0.01,0.0089,0.007,0.0069,0.0035,0.0027,0.0012,-0.0009,-0.0008,-0.003,-0.0048,-0.0049,-0.0009,-0.0005,-0.0001,0.0015,-0.0035,0,0,0,0,0,0.014,0.0147,0.0137,0.0142,0.0141,0.0121,0.0115,0.0106,0.0088,0.008,0.0056,0.003,0.0008,-0.0003,-0.0027,-0.0038,-0.0062,-0.004,-0.0036,-0.0033,-0.0024,-0.0051,-0.0049,-0.0073,-0.0073,-0.0073,0,0,0.0145,0.0144,0.0148,0.0145,0.0135,0.014,0.0117,0.0115,0.0116,0.0075,0.0069,0.0041,0.0007,-0.0006,-0.0014,-0.0022,-0.004,-0.0032,-0.0029,-0.0022,-0.005,-0.0048,-0.0046,-0.0073,-0.0073,-0.0073,0,0,0.0159,0.016,0.0171,0.0169,0.0164,0.0154,0.0157,0.0142,0.0133,0.0123,0.0094,0.0075,0.004,0.0021,0.0005,0.0015,-0.0021,0.0005,0.0038,0.0013,0.0015,0.0016,-0.0017,-0.0019,0.0009,0.0009,0.0009,0,0.0165,0.018,0.0171,0.0182,0.0186,0.0165,0.0179,0.0167,0.0147,0.0145,0.0128,0.0085,0.0055,0.0042,0.0043,0.0024,0.0,0.0026,0.0018,0.0019,0.002,-0.0014,-0.0017,0.0011,0.0011,0.0011,0.0011,0,0.0187,0.0201,0.0208,0.0218,0.022,0.0229,0.0219,0.0216,0.0203,0.0192,0.0176,0.0135,0.0112,0.0096,0.0071,0.0063,0.0041,0.0025,0.001,0.0026,-0.0012,-0.0016,0.0015,0.0014,0.0013,0.0013,0,0,0.0201,0.0221,0.0225,0.0242,0.0245,0.0252,0.0256,0.0258,0.027,0.0239,0.0248,0.0201,0.0183,0.0164,0.0129,0.0104,0.0081,0.0071,0.0068,0.0043,0.0017,0.0001,-0.0005,0.0064,0.0063,0.0063,-0.0013,0,0.0222,0.0256,0.0258,0.0292,0.0311,0.0303,0.0314,0.0313,0.0304,0.0306,0.0263,0.0255,0.0208,0.0201,0.0168,0.0105,0.0074,0.0103,0.0001,-0.0002,-0.0013,-0.0008,0.0063,-0.0016,-0.0017,-0.0017,-0.0018,0,0.0246,0.0268,0.0306,0.0342,0.035,0.0366,0.039,0.04,0.0394,0.0388,0.0369,0.0334,0.0295,0.0254,0.0155,0.0175,0.0103,0.0048,0.0044,0.0011,-0.0024,-0.0035,-0.0025,-0.0025,-0.0024,-0.0024,-0.0023,0,0.0266,0.0304,0.0339,0.0351,0.0383,0.04,0.0419,0.0426,0.0454,0.0446,0.0459,0.04,0.0382,0.0285,0.0166,0.0161,0.0051,0.003,-0.0054,-0.0057,-0.0043,-0.0043,-0.0039,-0.0039,-0.0039,-0.0039,-0.0038,0,0.0292,0.0323,0.0355,0.0377,0.0429,0.0439,0.0497,0.0501,0.0529,0.0574,0.0511,0.0518,0.039,0.0308,0.0188,0.0056,0.0065,-0.0046,-0.0074,-0.0021,-0.0019,-0.0046,-0.0046,-0.0041,-0.0041,-0.004,-0.004,0,0.0312,0.0329,0.0378,0.0421,0.0442,0.0483,0.0562,0.0608,0.0618,0.0671,0.0673,0.0614,0.0505,0.0358,0.0201,0.0098,-0.0036,-0.0088,-0.0022,-0.0046,-0.0134,-0.0131,-0.0184,-0.0185,-0.0186,-0.0187,-0.0187,0,0.0324,0.035,0.0415,0.0456,0.0481,0.0551,0.0609,0.065,0.0703,0.0728,0.0753,0.0669,0.0605,0.0376,0.021,-0.0022,-0.0059,-0.0133,-0.0134,-0.0126,-0.0148,-0.0142,-0.0138,-0.0189,-0.0189,-0.0189,-0.019,0,0.0351,0.0373,0.0415,0.05,0.0566,0.0652,0.073,0.0777,0.0829,0.0835,0.0825,0.0705,0.0582,0.0389,0.0206,0.0038,-0.0087,-0.0143,-0.0143,-0.0144,-0.0132,-0.0152,-0.0146,-0.0193,-0.0192,-0.0192,-0.0192,0,0.0373,0.0406,0.0464,0.0542,0.0631,0.0724,0.0768,0.0829,0.0879,0.0894,0.0889,0.0748,0.067,0.042,0.0252,0.0083,0.0037,-0.0022,-0.0029,-0.0027,0.0034,0.0073,0.0057,0,0,0,0,0,0.0391,0.0434,0.0507,0.0592,0.0684,0.074,0.0839,0.0877,0.0921,0.0923,0.091,0.0791,0.0553,0.045,0.0279,0.0218,-0.0004,0.001,-0.0078,-0.0211,-0.0207,-0.0164,0,0,0,0,0,0,0.0404,0.0468,0.0505,0.0622,0.069,0.0799,0.0868,0.0901,0.0901,0.0912,0.079,0.0733,0.0499,0.0646,0.027,0.0219,0.0137,-0.0101,-0.0105,-0.0213,-0.0209,-0.0206,-0.0161,0,0,0,0,0]}]]